When you browse on this site, cookies collect data to enhance your experience and personalize the content and advertising you see.
Visit our Privacy Policy to learn more. By continuing to use the site, you agree to this use of cookies and data.
  • In Germany
  • List of Countries
  • For 7 days
  • Water Temperature
  • Weather Map
  • Weather Widgets
  • user-avatar
    Login

    Hourly Weather La Massana

    Today, 12 December, Thursday

    Time Temperature Precipitation Wind Pressure Humidity
    00:00 -5°C° 0.8 mm 2 mps 605 mmHg 94%
    01:00 -5°C° 1 mm 2 mps 605 mmHg 95%
    02:00 -5°C° 1 mm 2 mps 605 mmHg 96%
    03:00 -5°C° 1 mm 2 mps 604 mmHg 97%
    04:00 -5°C° 0.7 mm 2 mps 604 mmHg 96%
    05:00 -3°C° 0.7 mm 1 mps 604 mmHg 96%
    06:00 -3°C° 0.7 mm 1 mps 604 mmHg 96%
    07:00 -2°C° 0.3 mm 1 mps 604 mmHg 93%
    08:00 -1°C° 0.3 mm 1 mps 604 mmHg 91%
    09:00 -1°C° 0.3 mm 1 mps 604 mmHg 89%
    10:00 0°C° 0.2 mm 1 mps 604 mmHg 86%
    11:00 +1°C° 0.2 mm 1 mps 604 mmHg 83%
    12:00 +2°C° 0.2 mm 1 mps 604 mmHg 80%
    13:00 +1°C° 0.1 mm 1 mps 603 mmHg 83%
    14:00 +1°C° 0.1 mm 1 mps 602 mmHg 86%
    15:00 -2°C° 0.1 mm 2 mps 601 mmHg 89%
    16:00 -2°C° 0.5 mm 2 mps 600 mmHg 92%
    17:00 -3°C° 0.5 mm 2 mps 600 mmHg 94%
    18:00 -3°C° 0.5 mm 2 mps 599 mmHg 96%
    19:00 -3°C° 2.1 mm 2 mps 598 mmHg 96%
    20:00 -3°C° 2.1 mm 2 mps 598 mmHg 97%
    21:00 -3°C° 2.1 mm 2 mps 598 mmHg 97%
    22:00 -3°C° 2.6 mm 2 mps 598 mmHg 97%
    23:00 0°C° 2.6 mm 1 mps 598 mmHg 98%

    Tomorrow, 13 December, Friday

    Time Temperature Precipitation Wind Pressure Humidity
    00:00 0°C° 2.6 mm 1 mps 598 mmHg 98%
    01:00 0°C° 2.1 mm 1 mps 598 mmHg 98%
    02:00 0°C° 2.1 mm 1 mps 597 mmHg 98%
    03:00 -2°C° 2.1 mm 2 mps 597 mmHg 98%
    04:00 0°C° 2 mm 1 mps 597 mmHg 98%
    05:00 +1°C° 2 mm 1 mps 597 mmHg 98%
    06:00 +1°C° 2 mm 1 mps 597 mmHg 99%
    07:00 +1°C° 3 mm 1 mps 597 mmHg 98%
    08:00 -1°C° 3 mm 2 mps 597 mmHg 98%
    09:00 -1°C° 3 mm 2 mps 597 mmHg 98%
    10:00 +1°C° 3.3 mm 2 mps 598 mmHg 98%
    11:00 +1°C° 3.3 mm 2 mps 598 mmHg 98%
    12:00 0°C° 3.3 mm 3 mps 599 mmHg 97%
    13:00 0°C° 1.6 mm 3 mps 599 mmHg 97%
    14:00 0°C° 1.6 mm 3 mps 599 mmHg 97%
    15:00 0°C° 1.6 mm 3 mps 599 mmHg 97%
    16:00 0°C° 2.9 mm 3 mps 599 mmHg 98%
    17:00 -1°C° 2.9 mm 3 mps 600 mmHg 98%
    18:00 -1°C° 2.9 mm 2 mps 600 mmHg 99%
    19:00 -1°C° 2.5 mm 2 mps 601 mmHg 99%
    20:00 -1°C° 2.5 mm 2 mps 602 mmHg 99%
    21:00 +1°C° 2.5 mm 2 mps 602 mmHg 99%
    22:00 +1°C° 1.5 mm 2 mps 603 mmHg 99%
    23:00 +1°C° 1.5 mm 2 mps 603 mmHg 98%

    Day after tomorrow, 14 December, Saturday

    Time Temperature Precipitation Wind Pressure Humidity
    00:00 +1°C° 1.5 mm 2 mps 603 mmHg 98%
    01:00 +1°C° 0 mm 2 mps 604 mmHg 98%
    02:00 -1°C° 0 mm 3 mps 604 mmHg 97%
    03:00 -1°C° 0 mm 3 mps 604 mmHg 97%
    04:00 -1°C° 0 mm 3 mps 604 mmHg 96%
    05:00 -1°C° 0 mm 2 mps 604 mmHg 95%
    06:00 -2°C° 0 mm 2 mps 604 mmHg 94%
    07:00 -1°C° 0 mm 2 mps 605 mmHg 93%
    08:00 -1°C° 0 mm 2 mps 605 mmHg 92%
    09:00 -1°C° 0 mm 2 mps 606 mmHg 91%
    10:00 +2°C° 0 mm 1 mps 606 mmHg 91%
    11:00 +3°C° 0 mm 1 mps 606 mmHg 91%
    12:00 +2°C° 0 mm 0 mps 607 mmHg 91%
    13:00 +3°C° 0 mm 1 mps 606 mmHg 92%
    14:00 +3°C° 0 mm 1 mps 606 mmHg 93%
    15:00 +3°C° 0 mm 1 mps 606 mmHg 94%
    16:00 +1°C° 0 mm 1 mps 606 mmHg 92%
    17:00 0°C° 0 mm 1 mps 605 mmHg 91%
    18:00 -1°C° 0 mm 1 mps 605 mmHg 89%
    19:00 -1°C° 0 mm 1 mps 605 mmHg 87%
    20:00 -1°C° 0 mm 1 mps 605 mmHg 85%
    21:00 -1°C° 0 mm 1 mps 605 mmHg 82%
    22:00 -2°C° 0 mm 1 mps 605 mmHg 82%
    23:00 -2°C° 0 mm 1 mps 605 mmHg 82%

    15 December, Sunday

    Time Temperature Precipitation Wind Pressure Humidity
    00:00 -2°C° 0 mm 1 mps 605 mmHg 82%
    01:00 -2°C° 0 mm 1 mps 605 mmHg 81%
    02:00 -2°C° 0 mm 1 mps 605 mmHg 80%
    03:00 -2°C° 0 mm 1 mps 604 mmHg 78%
    04:00 -2°C° 0 mm 1 mps 604 mmHg 77%
    05:00 -2°C° 0 mm 1 mps 604 mmHg 75%
    06:00 -2°C° 0 mm 1 mps 605 mmHg 74%
    07:00 -1°C° 0 mm 1 mps 605 mmHg 75%
    08:00 0°C° 0 mm 1 mps 606 mmHg 76%
    09:00 +1°C° 0 mm 1 mps 607 mmHg 78%
    10:00 +2°C° 0 mm 1 mps 607 mmHg 81%
    11:00 +3°C° 0 mm 1 mps 607 mmHg 83%
    12:00 +3°C° 0 mm 2 mps 607 mmHg 86%
    13:00 +3°C° 0 mm 2 mps 607 mmHg 88%
    14:00 +2°C° 0 mm 2 mps 607 mmHg 89%
    15:00 +2°C° 0 mm 2 mps 606 mmHg 91%
    16:00 +1°C° 0 mm 2 mps 606 mmHg 91%
    17:00 -1°C° 0 mm 2 mps 606 mmHg 91%
    18:00 -1°C° 0 mm 2 mps 605 mmHg 91%
    19:00 -2°C° 0 mm 2 mps 605 mmHg 89%
    20:00 -2°C° 0 mm 2 mps 605 mmHg 87%
    21:00 -2°C° 0 mm 2 mps 605 mmHg 85%
    22:00 -2°C° 0 mm 2 mps 605 mmHg 84%
    23:00 -2°C° 0 mm 2 mps 605 mmHg 82%

    16 December, Monday

    Time Temperature Precipitation Wind Pressure Humidity
    00:00 -2°C° 0 mm 2 mps 604 mmHg 80%
    01:00 -3°C° 0 mm 2 mps 604 mmHg 79%
    02:00 -3°C° 0 mm 2 mps 603 mmHg 77%
    03:00 -3°C° 0 mm 2 mps 603 mmHg 75%
    04:00 -3°C° 0 mm 2 mps 603 mmHg 75%
    05:00 -3°C° 0 mm 2 mps 602 mmHg 74%
    06:00 -4°C° 0 mm 3 mps 602 mmHg 74%
    07:00 -4°C° 0 mm 3 mps 602 mmHg 76%
    08:00 -2°C° 0 mm 3 mps 603 mmHg 77%
    09:00 -1°C° 0 mm 3 mps 603 mmHg 79%
    10:00 0°C° 0 mm 3 mps 603 mmHg 80%
    11:00 0°C° 0 mm 4 mps 603 mmHg 82%
    12:00 0°C° 0 mm 4 mps 603 mmHg 83%
    13:00 0°C° 0 mm 4 mps 603 mmHg 85%
    14:00 0°C° 0 mm 4 mps 602 mmHg 88%
    15:00 0°C° 0 mm 4 mps 602 mmHg 90%
    16:00 +1°C° 0 mm 3 mps 601 mmHg 91%
    17:00 0°C° 0 mm 3 mps 601 mmHg 91%
    18:00 0°C° 0 mm 3 mps 601 mmHg 92%
    19:00 0°C° 0 mm 3 mps 601 mmHg 92%
    20:00 0°C° 0 mm 3 mps 601 mmHg 91%
    21:00 0°C° 0 mm 3 mps 601 mmHg 91%
    22:00 0°C° 0 mm 3 mps 601 mmHg 91%
    23:00 0°C° 0 mm 3 mps 600 mmHg 91%

    17 December, Tuesday

    Time Temperature Precipitation Wind Pressure Humidity
    00:00 0°C° 0 mm 3 mps 600 mmHg 91%
    01:00 -1°C° 0 mm 2 mps 600 mmHg 90%
    02:00 -1°C° 0 mm 2 mps 600 mmHg 89%
    03:00 -2°C° 0 mm 2 mps 599 mmHg 88%
    04:00 -2°C° 0.1 mm 2 mps 600 mmHg 89%
    05:00 -2°C° 0.1 mm 2 mps 600 mmHg 89%
    06:00 -2°C° 0.1 mm 2 mps 600 mmHg 90%
    07:00 +1°C° 0 mm 1 mps 601 mmHg 89%
    08:00 +1°C° 0 mm 1 mps 601 mmHg 87%
    09:00 +2°C° 0 mm 1 mps 602 mmHg 86%
    10:00 +2°C° 0 mm 1 mps 602 mmHg 86%
    11:00 +3°C° 0 mm 1 mps 603 mmHg 87%
    12:00 +4°C° 0 mm 1 mps 603 mmHg 88%
    13:00 +3°C° 0.1 mm 1 mps 603 mmHg 90%
    14:00 +3°C° 0.1 mm 1 mps 603 mmHg 92%
    15:00 +2°C° 0.1 mm 1 mps 604 mmHg 94%
    16:00 +2°C° 0.2 mm 1 mps 604 mmHg 95%
    17:00 +2°C° 0.2 mm 1 mps 605 mmHg 97%
    18:00 +1°C° 0.2 mm 1 mps 605 mmHg 98%
    19:00 +1°C° 0.1 mm 1 mps 606 mmHg 97%
    20:00 +1°C° 0.1 mm 1 mps 606 mmHg 97%
    21:00 +1°C° 0.1 mm 1 mps 607 mmHg 97%
    22:00 0°C° 0 mm 0 mps 607 mmHg 97%
    23:00 0°C° 0 mm 0 mps 607 mmHg 96%
    Show more